KLM589 EHAM-DGAA

Flight info

Callsign KLM589
Flight time N/A
Altitude 35000
Route WOODY N872 NIK/N0444F230 N872 CIV/N0479F350 DCT KOVIN DCT DUCRA DCT RESMI DCT DEKOD DCT DISAK DCT DIRMO DCT ETAMO DCT ADEKA DCT MOKDI DCT MEN DCT BADAM DCT KANIG DCT KENAS DCT POS DCT WITAZ DCT XESPA DCT GENIO DCT MOGIL UB31 ZEM/N0480F360 UZ333 KAHIL UB726 GHA/N0483F370 UA615 TMS UA604 EREBO/N0485F380 DCT MIGNI DCT ABALA DCT IPUTA DCT TATAT DCT KILMO DCT LITEX LITEX1B
Aircraft B77W/H-SDE1E2E3FGHIJ2J3J4J5M1RWXY/LB1D1

Departure

Time 2026-04-17 10:02
Airport Amsterdam Airport Schiphol (EHAM)

Arrival

Time N/A
Airport Kotoka International Airport (DGAA)
Time Latitude Longitude Altitude Speed Heading
2026-04-17 08:55 52.31299 4.75816 5 ft 0 kts 267°
2026-04-17 09:51 52.31299 4.75824 5 ft 2 kts 267°
2026-04-17 09:51 52.31300 4.75848 5 ft 2 kts 268°
2026-04-17 09:51 52.31299 4.75873 5 ft 2 kts 287°
2026-04-17 09:52 52.31293 4.75895 5 ft 2 kts 303°
2026-04-17 09:52 52.31284 4.75913 5 ft 2 kts 318°
2026-04-17 09:52 52.31272 4.75927 5 ft 2 kts 333°
2026-04-17 09:52 52.31259 4.75936 5 ft 2 kts 348°
2026-04-17 09:53 52.31249 4.75938 5 ft 1 kts 358°
2026-04-17 09:53 52.31248 4.75938 5 ft 0 kts 358°
2026-04-17 09:55 52.31250 4.75938 5 ft 1 kts 358°
2026-04-17 09:55 52.31276 4.75935 5 ft 6 kts 356°
2026-04-17 09:56 52.31336 4.75929 5 ft 10 kts 356°
2026-04-17 09:56 52.31407 4.75922 5 ft 9 kts 358°
2026-04-17 09:56 52.31437 4.75948 5 ft 5 kts 58°
2026-04-17 09:56 52.31447 4.76021 5 ft 7 kts 85°
2026-04-17 09:57 52.31451 4.76121 5 ft 10 kts 86°
2026-04-17 09:57 52.31456 4.76251 5 ft 12 kts 87°
2026-04-17 09:57 52.31461 4.76410 5 ft 14 kts 87°
2026-04-17 09:57 52.31467 4.76591 5 ft 16 kts 87°
2026-04-17 09:58 52.31474 4.76792 5 ft 18 kts 87°
2026-04-17 09:58 52.31481 4.77002 5 ft 17 kts 87°
2026-04-17 09:58 52.31488 4.77137 5 ft 10 kts 74°
2026-04-17 09:58 52.31537 4.77209 5 ft 9 kts 35°
2026-04-17 09:59 52.31574 4.77289 5 ft 8 kts 60°
2026-04-17 09:59 52.31611 4.77386 5 ft 11 kts 57°
2026-04-17 09:59 52.31661 4.77513 5 ft 14 kts 57°
2026-04-17 09:59 52.31718 4.77648 5 ft 14 kts 46°
2026-04-17 10:00 52.31809 4.77695 5 ft 14 kts
2026-04-17 10:00 52.31908 4.77704 5 ft 14 kts
2026-04-17 10:00 52.32002 4.77731 5 ft 13 kts 25°
2026-04-17 10:00 52.32074 4.77822 5 ft 12 kts 41°
2026-04-17 10:01 52.32119 4.77928 5 ft 11 kts 84°
2026-04-17 10:01 52.32108 4.78003 5 ft 4 kts 140°
2026-04-17 10:01 52.32079 4.78012 5 ft 4 kts 182°
2026-04-17 10:01 52.32044 4.78010 5 ft 9 kts 182°
2026-04-17 10:02 52.31783 4.77986 5 ft 72 kts 184°
2026-04-17 10:02 52.31054 4.77920 5 ft 136 kts 184°
2026-04-17 10:02 52.29945 4.77814 145 ft 176 kts 184°
2026-04-17 10:02 52.28700 4.77703 775 ft 182 kts 182°
2026-04-17 10:03 52.27488 4.77972 1524 ft 179 kts 166°
2026-04-17 10:03 52.26244 4.78538 1819 ft 193 kts 165°
2026-04-17 10:03 52.24920 4.79158 2132 ft 208 kts 165°
2026-04-17 10:03 52.23466 4.79824 2416 ft 226 kts 165°
2026-04-17 10:04 52.21907 4.80542 2860 ft 238 kts 169°
2026-04-17 10:04 52.20223 4.80649 3208 ft 252 kts 185°
2026-04-17 10:04 52.18451 4.80380 3809 ft 258 kts 187°
2026-04-17 10:04 52.16675 4.80101 4579 ft 257 kts 186°
2026-04-17 10:05 52.14896 4.79850 5231 ft 260 kts 186°
2026-04-17 10:05 52.13094 4.79608 5830 ft 265 kts 186°
2026-04-17 10:05 52.11271 4.79358 6488 ft 266 kts 186°
2026-04-17 10:05 52.09438 4.79078 7162 ft 267 kts 187°
2026-04-17 10:06 52.07585 4.78800 7760 ft 271 kts 186°
2026-04-17 10:06 52.05694 4.78560 8433 ft 271 kts 186°
2026-04-17 10:06 52.03837 4.78327 9079 ft 271 kts 187°
2026-04-17 10:06 52.01951 4.78075 9656 ft 274 kts 187°
2026-04-17 10:07 52.00080 4.77805 10206 ft 276 kts 187°
2026-04-17 10:07 51.98125 4.77517 10579 ft 287 kts 187°
2026-04-17 10:07 51.96075 4.77244 10816 ft 304 kts 187°
2026-04-17 10:07 51.93950 4.76951 11129 ft 317 kts 189°
2026-04-17 10:08 51.91761 4.76255 11537 ft 326 kts 198°
2026-04-17 10:08 51.89623 4.74951 12029 ft 334 kts 207°
2026-04-17 10:08 51.87539 4.73207 12544 ft 343 kts 209°
2026-04-17 10:08 51.85386 4.71369 13035 ft 355 kts 208°
2026-04-17 10:09 51.83109 4.69516 13475 ft 368 kts 207°
2026-04-17 10:09 51.81217 4.68016 13990 ft 374 kts 207°
2026-04-17 10:09 51.78851 4.66159 14789 ft 379 kts 207°
2026-04-17 10:09 51.76537 4.64352 15586 ft 383 kts 207°
2026-04-17 10:10 51.74134 4.62480 16454 ft 386 kts 207°
2026-04-17 10:10 51.71693 4.60583 17232 ft 392 kts 207°
2026-04-17 10:10 51.69208 4.58655 17976 ft 397 kts 207°
2026-04-17 10:11 51.64178 4.54762 19487 ft 407 kts 208°
2026-04-17 10:11 51.61604 4.52776 20196 ft 412 kts 208°
2026-04-17 10:11 51.59013 4.50780 20909 ft 417 kts 208°
2026-04-17 10:11 51.56390 4.48762 21565 ft 422 kts 208°
2026-04-17 10:12 51.53725 4.46715 22255 ft 426 kts 208°
2026-04-17 10:12 51.51063 4.44672 22938 ft 429 kts 208°
2026-04-17 10:12 51.48358 4.42599 23590 ft 434 kts 208°
2026-04-17 10:12 51.45645 4.40522 24207 ft 438 kts 208°
2026-04-17 10:13 51.42875 4.38406 24825 ft 443 kts 208°
2026-04-17 10:13 51.40087 4.36278 25426 ft 447 kts 208°
2026-04-17 10:13 51.37264 4.34128 25991 ft 452 kts 208°
2026-04-17 10:13 51.34414 4.31962 26575 ft 456 kts 208°
2026-04-17 10:14 51.31545 4.29785 27190 ft 459 kts 208°
2026-04-17 10:14 51.28656 4.27591 27733 ft 464 kts 208°
2026-04-17 10:14 51.25707 4.25352 28283 ft 468 kts 208°
2026-04-17 10:14 51.22800 4.23149 28807 ft 472 kts 208°
2026-04-17 10:15 51.19820 4.20893 29348 ft 475 kts 208°
2026-04-17 10:15 51.16815 4.18661 29944 ft 478 kts 206°
2026-04-17 10:15 51.13712 4.16831 30681 ft 478 kts 202°
2026-04-17 10:15 51.10583 4.15114 31463 ft 476 kts 202°
2026-04-17 10:16 51.07440 4.13396 32189 ft 473 kts 202°
2026-04-17 10:16 51.04309 4.11687 32818 ft 472 kts 203°
2026-04-17 10:16 51.01223 4.10002 33361 ft 472 kts 203°
2026-04-17 10:16 50.98119 4.08310 33849 ft 472 kts 203°
2026-04-17 10:17 50.94999 4.06610 34352 ft 472 kts 203°
2026-04-17 10:17 50.91888 4.04917 34846 ft 470 kts 203°
2026-04-17 10:17 50.88789 4.03234 35176 ft 472 kts 204°
2026-04-17 10:18 50.82682 3.99523 35205 ft 468 kts 207°
2026-04-17 10:18 50.76670 3.95616 35202 ft 467 kts 207°
2026-04-17 10:19 50.70649 3.91741 35204 ft 468 kts 206°
2026-04-17 10:19 50.64600 3.87872 35205 ft 468 kts 206°
2026-04-17 10:20 50.58607 3.84058 35204 ft 468 kts 206°
2026-04-17 10:20 50.52589 3.80057 35200 ft 468 kts 208°
2026-04-17 10:21 50.46659 3.75984 35200 ft 468 kts 208°
2026-04-17 10:21 50.40704 3.71919 35197 ft 467 kts 208°
2026-04-17 10:22 50.34747 3.67871 35197 ft 468 kts 208°
2026-04-17 10:22 50.28783 3.63833 35200 ft 469 kts 207°
2026-04-17 10:23 50.22795 3.59792 35204 ft 468 kts 207°
2026-04-17 10:23 50.16857 3.55797 35201 ft 468 kts 207°
2026-04-17 10:24 50.10873 3.51782 35197 ft 468 kts 207°
2026-04-17 10:24 50.04948 3.47819 35203 ft 467 kts 207°